TimeCST,TemperatureF,Dew PointF,Humidity,Sea Level PressureIn,VisibilityMPH,Wind Direction,Wind SpeedMPH,Gust SpeedMPH,PrecipitationIn,Events,Conditions,WindDirDegrees,DateUTC
12:15 AM,8.8,4.6,83,30.26,2.5,ESE,13.8,-,N/A,Snow,Light Snow,110,2013-12-08 06:15:00
12:35 AM,9.0,4.8,83,30.25,2.0,ESE,12.7,-,N/A,Snow,Light Snow,110,2013-12-08 06:35:00
12:55 AM,9.0,4.8,83,30.23,2.5,ESE,12.7,-,N/A,Snow,Light Snow,110,2013-12-08 06:55:00
1:15 AM,9.1,5.0,83,30.21,2.5,ESE,12.7,-,N/A,Snow,Light Snow,110,2013-12-08 07:15:00
1:35 AM,9.3,5.0,83,30.20,3.0,ESE,12.7,-,N/A,Snow,Light Snow,110,2013-12-08 07:35:00
1:55 AM,9.5,5.5,84,30.18,3.0,ESE,13.8,-,N/A,Snow,Light Snow,120,2013-12-08 07:55:00
2:15 AM,9.5,5.5,84,30.17,4.0,ESE,11.5,-,N/A,Snow,Light Snow,120,2013-12-08 08:15:00
2:35 AM,9.9,5.9,84,30.16,4.0,ESE,12.7,-,N/A,Snow,Light Snow,120,2013-12-08 08:35:00
2:55 AM,10.2,6.3,84,30.15,4.0,ESE,13.8,-,N/A,Snow,Light Snow,120,2013-12-08 08:55:00
3:15 AM,10.4,6.4,84,30.15,5.0,ESE,11.5,-,N/A,Snow,Light Snow,120,2013-12-08 09:15:00
3:35 AM,10.4,6.6,85,30.13,4.0,ESE,11.5,-,N/A,Snow,Light Snow,120,2013-12-08 09:35:00
3:55 AM,10.8,6.8,84,30.13,4.0,ESE,11.5,-,N/A,Snow,Light Snow,120,2013-12-08 09:55:00
4:15 AM,10.9,7.0,84,30.11,4.0,ESE,9.2,-,N/A,Snow,Light Snow,120,2013-12-08 10:15:00
4:35 AM,10.6,6.8,85,30.09,4.0,ESE,11.5,-,N/A,Snow,Light Snow,120,2013-12-08 10:35:00
4:55 AM,10.4,6.8,85,30.09,3.0,ESE,8.1,-,N/A,Snow,Light Snow,110,2013-12-08 10:55:00
5:15 AM,10.9,7.2,85,30.08,2.5,ESE,8.1,-,N/A,Snow,Light Snow,110,2013-12-08 11:15:00
5:35 AM,11.1,7.3,85,30.07,2.5,ESE,8.1,-,N/A,Snow,Light Snow,110,2013-12-08 11:35:00
5:55 AM,10.9,7.2,85,30.07,3.0,ESE,8.1,-,N/A,Snow,Light Snow,110,2013-12-08 11:55:00
6:15 AM,11.1,7.5,85,30.08,3.0,ESE,6.9,-,N/A,Snow,Light Snow,110,2013-12-08 12:15:00
6:35 AM,11.1,7.3,85,30.07,3.0,ESE,8.1,-,N/A,Snow,Light Snow,120,2013-12-08 12:35:00
6:55 AM,10.9,7.3,85,30.06,5.0,ESE,6.9,-,N/A,Snow,Light Snow,110,2013-12-08 12:55:00
7:15 AM,11.1,7.5,85,30.06,5.0,ESE,6.9,-,N/A,Snow,Light Snow,120,2013-12-08 13:15:00
7:35 AM,11.1,7.5,85,30.06,10.0,East,5.8,-,N/A,Snow,Light Snow,100,2013-12-08 13:35:00
7:55 AM,11.3,7.5,85,30.05,10.0,ESE,5.8,-,N/A,Snow,Light Snow,110,2013-12-08 13:55:00
8:15 AM,11.1,7.5,85,30.05,7.0,ESE,8.1,-,N/A,Snow,Light Snow,110,2013-12-08 14:15:00
8:35 AM,11.3,7.7,85,30.05,5.0,East,4.6,-,N/A,Snow,Light Snow,100,2013-12-08 14:35:00
8:55 AM,11.7,7.7,84,30.05,10.0,East,5.8,-,N/A,Snow,Light Snow,90,2013-12-08 14:55:00
9:15 AM,11.8,7.9,84,30.04,7.0,East,6.9,-,N/A,Snow,Light Snow,90,2013-12-08 15:15:00
9:35 AM,12.0,8.2,85,30.04,2.5,East,6.9,-,N/A,Snow,Light Snow,100,2013-12-08 15:35:00
9:55 AM,12.2,8.4,85,30.04,1.5,East,6.9,-,N/A,Snow,Light Snow,100,2013-12-08 15:55:00
10:15 AM,12.7,8.6,84,30.03,1.5,East,6.9,-,N/A,Snow,Light Snow,80,2013-12-08 16:15:00
10:35 AM,12.9,8.6,83,30.03,2.5,East,5.8,-,N/A,Snow,Light Snow,90,2013-12-08 16:35:00
10:55 AM,13.3,9.0,83,30.03,3.0,East,6.9,-,N/A,Snow,Light Snow,90,2013-12-08 16:55:00
11:15 AM,13.8,9.1,82,30.02,3.0,East,5.8,-,N/A,Snow,Light Snow,90,2013-12-08 17:15:00
11:35 AM,14.0,9.3,82,30.01,4.0,East,6.9,-,N/A,Snow,Light Snow,100,2013-12-08 17:35:00
11:55 AM,14.2,9.5,82,30.00,4.0,East,5.8,-,N/A,Snow,Light Snow,100,2013-12-08 17:55:00
12:15 PM,14.5,9.7,81,29.99,4.0,East,3.5,-,N/A,Snow,Light Snow,100,2013-12-08 18:15:00
12:35 PM,14.5,9.5,80,29.99,3.0,Calm,Calm,-,N/A,Snow,Light Snow,0,2013-12-08 18:35:00
12:55 PM,14.7,9.7,80,29.98,3.0,Calm,Calm,-,N/A,Snow,Light Snow,0,2013-12-08 18:55:00
1:15 PM,14.7,9.9,81,29.98,2.0,Calm,Calm,-,N/A,Snow,Light Snow,0,2013-12-08 19:15:00
1:35 PM,14.7,9.9,81,29.97,3.0,Calm,Calm,-,N/A,Snow,Light Snow,0,2013-12-08 19:35:00
1:55 PM,14.9,9.7,80,29.97,5.0,Calm,Calm,-,N/A,Snow,Light Snow,0,2013-12-08 19:55:00
2:15 PM,14.9,9.7,80,29.96,7.0,Calm,Calm,-,N/A,,Overcast,0,2013-12-08 20:15:00
2:35 PM,14.9,10.2,82,29.95,4.0,North,4.6,-,N/A,Snow,Light Snow,10,2013-12-08 20:35:00
2:55 PM,15.1,10.0,80,29.96,10.0,Calm,Calm,-,N/A,,Overcast,0,2013-12-08 20:55:00
3:15 PM,15.3,10.0,80,29.97,10.0,Calm,Calm,-,N/A,Snow,Light Snow,0,2013-12-08 21:15:00
3:35 PM,15.1,9.5,79,29.97,3.0,Calm,Calm,-,N/A,Snow,Light Snow,0,2013-12-08 21:35:00
3:55 PM,15.3,10.4,81,29.99,1.8,Calm,Calm,-,N/A,Snow,Light Snow,0,2013-12-08 21:55:00
4:15 PM,15.3,11.1,84,29.99,1.2,Calm,Calm,-,N/A,Snow,Light Snow,0,2013-12-08 22:15:00
4:35 PM,15.1,11.3,85,29.99,0.8,NNW,4.6,-,N/A,Snow,Light Snow,330,2013-12-08 22:35:00
4:55 PM,14.9,11.7,87,30.00,0.8,NNW,5.8,-,N/A,Snow,Light Snow,340,2013-12-08 22:55:00
5:15 PM,14.9,11.7,87,30.01,1.8,NNW,4.6,-,N/A,Snow,Light Snow,330,2013-12-08 23:15:00
5:35 PM,14.9,11.3,86,30.02,2.5,NW,4.6,-,N/A,Snow,Light Snow,320,2013-12-08 23:35:00
5:55 PM,14.9,11.7,87,30.03,3.0,NW,4.6,-,N/A,Snow,Light Snow,310,2013-12-08 23:55:00
6:15 PM,14.9,11.3,86,30.04,3.0,NW,5.8,-,N/A,Snow,Light Snow,310,2013-12-09 00:15:00
6:35 PM,14.9,11.3,86,30.05,4.0,WNW,3.5,-,N/A,Snow,Light Snow,300,2013-12-09 00:35:00
6:55 PM,14.4,10.9,86,30.05,7.0,WNW,4.6,-,N/A,Snow,Light Snow,300,2013-12-09 00:55:00
7:15 PM,12.4,8.8,85,30.07,10.0,WNW,5.8,-,N/A,,Overcast,290,2013-12-09 01:15:00
7:35 PM,9.1,5.9,87,30.07,10.0,WNW,6.9,-,N/A,,Overcast,290,2013-12-09 01:35:00
7:55 PM,6.8,3.4,86,30.07,10.0,WNW,5.8,-,N/A,,Scattered Clouds,290,2013-12-09 01:55:00
8:15 PM,6.8,3.4,86,30.07,7.0,West,5.8,-,N/A,,Scattered Clouds,280,2013-12-09 02:15:00
8:35 PM,3.7,-0.4,83,30.08,7.0,WNW,5.8,-,N/A,,Clear,290,2013-12-09 02:35:00
8:55 PM,1.8,-2.4,83,30.08,10.0,WNW,8.1,-,N/A,,Clear,300,2013-12-09 02:55:00
9:15 PM,1.8,-2.4,83,30.09,7.0,WNW,4.6,-,N/A,,Scattered Clouds,290,2013-12-09 03:15:00
9:35 PM,4.8,1.4,86,30.12,10.0,West,6.9,-,N/A,Snow,Light Snow,270,2013-12-09 03:35:00
9:55 PM,4.5,0.5,84,30.11,7.0,WNW,10.4,-,N/A,,Mostly Cloudy,300,2013-12-09 03:55:00
10:15 PM,5.0,1.2,84,30.12,10.0,WNW,6.9,-,N/A,,Scattered Clouds,290,2013-12-09 04:15:00
10:35 PM,3.4,-0.8,83,30.13,10.0,WNW,5.8,-,N/A,,Clear,300,2013-12-09 04:35:00
10:55 PM,4.3,0.9,86,30.15,10.0,WNW,10.4,-,N/A,,Clear,300,2013-12-09 04:55:00
11:15 PM,5.7,2.1,85,30.15,10.0,WNW,10.4,-,N/A,,Clear,300,2013-12-09 05:15:00
11:35 PM,6.3,2.3,84,30.15,10.0,NW,13.8,-,N/A,,Clear,310,2013-12-09 05:35:00
11:55 PM,5.5,1.2,82,30.15,10.0,NW,13.8,-,N/A,,Clear,310,2013-12-09 05:55:00